STARLINK-11645, 63316

Orbit data source: Space-Track

STARLINK-11645, 63316 is a payload satellite owned by SpaceX/Seattle (US) in LEO that was launched on Tue, 18 Mar 2025 UTC via an FALCON 9 launch vehicle from the Air Force Eastern Test Range (AFETR). Payload-class satellites include a variety of spacecraft equipped with specific instruments for various scientific and technological missions. These include communications satellites like Starlink; space stations such as the ISS; scientific satellites like the Hubble; Earth observation satellites from companies like Planet Labs, Umbra, and HawkEye 360; GPS; miniature CubeSats for education and research; and military/defense satellites.

Loading next visibility...
Identifier
63316, 2025-057K
Orbit
LEO
Last TLE update
9 hours ago
Origin
Manufacturer
SpaceX/Seattle
Mission
Operational Commercial Communications
Bus & Motor
STARLINK V2M, Unknown motor
Mass
730 kg wet, ~700 kg dry
Launch date (UTC)
2025-03-18 (4 months ago)
Launch vehicle
FALCON 9
Launch site
Air Force Eastern Test Range (AFETR)
Object type
Payload
Rocket body
Debris
Shape & HBR
Box + 2 Pan, 29 m
Radar Cross Section
36.964 m², Large (>1 m²)

Expand to show TLE details & history

TLE from 9 hours ago
0 STARLINK-11645
1 63316U 25057K   25183.48389241  .00180971  00000-0  13812-2 0  9999
2 63316  42.9995 332.9661 0003844 288.9782  71.0669 15.70871863 17858
Epoch: 2025-07-02T11:36Z
TLE epoch observation values (Epoch: 2025-07-02T11:36:48.304Z)
Latitude
-0°
Longitude
-121.99951°
Altitude
355.336 km
Speed
7.698 km/s
True Right ascension
22h 11m 51s
True Declination
0° 00' 00"
Sunlit
Object was in full shadow at epoch
Visualization orbit readout
Latitude
-0.8703°
Longitude
-125.22722°
Altitude
354.911 km
Speed
7.699 km/s
Apparent Right ascension
21h 21m 31s
Apparent Declination
-20° 04' 28"
Sunlit
Object is in full shadow
Visualization observer readout
Local Sidereal Time
08:29:53
Azimuth
327.085° NNW
Elevation
-67.283°
Doppler factor
1
Orbital elements
Apogee altitude
360.975 km
Perigee altitude
355.796 km
Semi-major axis
6,736.523 km
Eccentricity
0.00038
Inclination
42.9995°
RAAN
332.9661°
Arg. of periapsis
288.9782°
True anomaly
Unknown
Mean anomaly
71.0669°
Eccentric anomaly
Unknown
Mean motion
3.92545 °/min
Orbital period
91.71 mins
BSTAR
0.0013812
Loading maneuver chart data...
Loading SW <> Apogee altitude chart data...
Loading historical data...
Loading historical data...
Loading historical data...
Loading historical data...
Loading historical data...
Loading historical data...
Loading historical data...

STARLINK-11645 Visibility forecast

Observer location: undefined°, undefined°

Span
Click to sort rows by Start time (UTC) header in descending order
Start Az.
Max El. time (UTC)
Max El. Az.
Max El.
End time (UTC)
End Az.
4 mins2025-07-03 15:24:48.132Z297.344° NW2025-07-03 15:25:48.132Z341.245° N35.223°2025-07-03 15:28:48.132Z69.866° E
4 mins2025-07-03 17:00:48.132Z300.108° NW2025-07-03 17:01:48.132Z327.138° NNW36.855°2025-07-03 17:04:48.132Z91.303° ESE
4 mins2025-07-03 18:36:48.132Z260.401° W2025-07-03 18:37:48.132Z231.187° WSW27.336°2025-07-03 18:40:48.132Z142.946° SSE
|